Hourly Data Report for January 04, 2017

PORT ALBERNI (AUT)
BRITISH COLUMBIA

49°18'59.700" N
124°55'36.600" W
76.20 m
1036B06
71475
WQC

Download Data

Hourly Data (January 2017)
Hourly Data Report for January 4, 2017
TIME
LST
Temp Definition
°C
Dew Point Definition
°C
Rel Hum Definition
%
Precip. Amount Definition
mm

Wind Dir Definition
10's deg

Wind Spd Definition
km/h
Visibility Definition
km
Stn Press Definition
kPa
Hmdx Definition


Wind Chill Definition


Weather Definition


00:00 -9.0 -10.7 88 0.0 34 4   101.75   -11 LegendNANA
01:00 -9.4 -11.1 88 0.0 32 4   101.70   -12 LegendNANA
02:00 -9.6 -11.2 88 0.0 31 5   101.65   -12 LegendNANA
03:00 -9.9 -11.6 88 0.0 31 6   101.67   -13 LegendNANA
04:00 -9.9 -11.5 88 0.0 31 5   101.66   -13 LegendNANA
05:00 -10.5 -12.1 88 0.0 32 6   101.65   -14 LegendNANA
06:00 -10.4 -12.0 88 0.0 32 7   101.67   -14 LegendNANA
07:00 -10.3 -11.9 88 0.0 32 8   101.70   -15 LegendNANA
08:00 -10.9 -12.4 88 0.0 31 6   101.73   -15 LegendNANA
09:00 -9.9 -11.5 88 0.0 31 7   101.80   -14 LegendNANA
10:00 -6.8 -8.5 88 0.0 33 6   101.85   -10 LegendNANA
11:00 -3.7 -5.5 88 0.0 31 5   101.85   -6 LegendNANA
12:00 -1.4 -3.1 88 0.0 32 5   101.82   -3 LegendNANA
13:00 0.1 -1.7 88 0.0 34 3   101.79     LegendNANA
14:00 0.9 -0.8 88 0.0 30 3   101.74     LegendNANA
15:00 1.9 0.2 88 0.0 21 4   101.75     LegendNANA
16:00 -1.8 -3.5 88 0.0 32 3   101.80   -3 LegendNANA
17:00 -3.9 -5.6 88 0.0 33 3   101.85   -5 LegendNANA
18:00 -5.6 -7.3 88 0.0 32 5   101.88   -8 LegendNANA
19:00 -6.9 -8.6 88 0.0 31 1   101.91   -7 LegendNANA
20:00 -7.3 -8.9 88 0.0 31 5   101.91   -10 LegendNANA
21:00 -7.4 -9.1 88 0.0 32 5   101.90   -10 LegendNANA
22:00 -8.3 -10.0 88 0.0 31 5   101.94   -11 LegendNANA
23:00 -9.0 -10.6 88 0.0 31 2   101.98   -10 LegendNANA

Notes on Data Quality.

Legend

  • E = Estimated
  • M = Missing
  • NA = Not Available*
  • [empty] = Indicates an unobserved value
Date modified: